DW2633 Weather Reports


time (UTC)temp
F
wind
direction
speed
knots
gust
knots
rain 1hr
in
rain 24hr
in
rain mn
in
humidity
%
barometer
mb
20260507221556 52 290 19.1 0.0 0.00 0.00 0.00 50 1007.1
20260507221056 53 276 15.6 0.0 0.00 0.00 0.00 53 1007.0
20260507220555 53 262 15.6 0.0 0.00 0.00 0.00 54 1007.1
20260507220056 53 292 15.6 0.0 0.00 0.00 0.00 52 1007.1
20260507215555 53 280 17.4 0.0 0.00 0.00 0.00 57 1007.1
20260507215055 53 285 20.0 0.0 0.00 0.00 0.00 53 1007.1
20260507214604 54 275 19.1 0.0 0.00 0.00 0.00 51 1007.0
20260507214055 54 279 19.1 0.0 0.00 0.00 0.00 54 1007.0
20260507213554 54 265 20.0 0.0 0.00 0.00 0.00 54 1007.0
20260507213056 54 257 19.1 0.0 0.00 0.00 0.00 54 1007.0
20260507212554 54 259 17.4 0.0 0.00 0.00 0.00 56 1007.0
20260507212057 54 277 20.0 0.0 0.00 0.00 0.00 56 1007.0
20260507211559 54 267 20.0 0.0 0.00 0.00 0.00 55 1007.0
20260507211053 54 264 17.4 0.0 0.00 0.00 0.00 58 1007.0
20260507210553 54 265 19.1 0.0 0.00 0.00 0.00 55 1007.0
20260507210100 54 273 19.1 0.0 0.00 0.00 0.00 56 1006.9
20260507205553 54 272 19.1 0.0 0.00 0.00 0.00 57 1007.0
20260507205052 54 278 18.2 0.0 0.00 0.00 0.00 57 1007.0
20260507204555 54 271 18.2 0.0 0.00 0.00 0.00 60 1007.0
20260507204055 54 267 18.2 0.0 0.00 0.00 0.00 59 1007.0
20260507203551 53 263 18.2 0.0 0.00 0.00 0.00 57 1006.9
20260507203105 54 273 19.1 0.0 0.00 0.00 0.00 59 1007.0
20260507202551 53 255 19.1 0.0 0.00 0.00 0.00 58 1007.0
20260507202051 53 276 17.4 0.0 0.00 0.00 0.00 61 1007.0
20260507201558 52 274 15.6 0.0 0.00 0.00 0.00 58 1006.9
20260507201052 52 274 14.8 0.0 0.00 0.00 0.00 60 1007.1
20260507200551 52 302 17.4 0.0 0.00 0.00 0.00 55 1007.2
20260507200104 53 308 20.9 0.0 0.00 0.00 0.00 50 1007.3
20260507195548 54 274 20.0 0.0 0.00 0.00 0.00 58 1007.2
20260507195049 53 265 17.4 0.0 0.00 0.00 0.00 61 1007.2
20260507194548 53 285 13.9 0.0 0.00 0.00 0.00 61 1007.4
20260507194047 53 304 13.9 0.0 0.00 0.00 0.00 58 1007.4
20260507193546 53 283 15.6 0.0 0.00 0.00 0.00 58 1007.5
20260507193049 53 282 17.4 0.0 0.00 0.00 0.00 55 1007.4
20260507192546 53 285 16.5 0.0 0.00 0.00 0.00 60 1007.5
20260507192045 53 317 18.2 0.0 0.00 0.00 0.00 54 1007.4
20260507191546 53 259 19.1 0.0 0.00 0.00 0.00 60 1007.5
20260507191046 53 268 19.1 0.0 0.00 0.00 0.00 60 1007.4
20260507190548 53 271 18.2 0.0 0.00 0.00 0.00 57 1007.4
20260507190048 54 263 18.2 0.0 0.00 0.00 0.00 61 1007.5
20260507185549 54 278 17.4 0.0 0.00 0.00 0.00 59 1007.6
20260507185046 54 264 17.4 0.0 0.00 0.00 0.00 62 1007.6
20260507184547 53 279 16.5 0.0 0.00 0.00 0.00 64 1007.7
20260507184043 53 281 13.0 0.0 0.00 0.00 0.00 61 1007.7
20260507183541 53 259 12.2 0.0 0.00 0.00 0.00 57 1007.7
20260507183047 53 292 13.9 0.0 0.00 0.00 0.00 59 1007.8
20260507182541 53 286 13.9 0.0 0.00 0.00 0.00 64 1007.9
20260507182044 52 296 14.8 0.0 0.00 0.00 0.00 64 1008.0
20260507181539 52 282 15.6 0.0 0.00 0.00 0.00 59 1008.0
20260507181039 52 264 16.5 0.0 0.00 0.00 0.00 62 1008.1
20260507180542 52 275 16.5 0.0 0.00 0.00 0.00 60 1008.0
20260507180046 52 278 15.6 0.0 0.00 0.00 0.00 65 1008.0
20260507175542 51 293 15.6 0.0 0.00 0.00 0.00 67 1008.1
20260507175039 51 296 14.8 0.0 0.00 0.00 0.00 60 1008.1
20260507174539 51 279 15.6 0.0 0.00 0.00 0.00 64 1008.2
20260507174038 51 281 18.2 0.0 0.00 0.00 0.00 62 1008.3
20260507173538 51 281 17.4 0.0 0.00 0.00 0.00 64 1008.3
20260507173038 51 300 16.5 0.0 0.00 0.00 0.00 61 1008.3
20260507172541 51 290 15.6 0.0 0.00 0.00 0.00 59 1008.4
20260507172037 52 288 15.6 0.0 0.00 0.00 0.00 62 1008.3
20260507171537 52 268 17.4 0.0 0.00 0.00 0.00 63 1008.4
20260507171038 52 273 18.2 0.0 0.00 0.00 0.00 61 1008.4
20260507170538 52 274 19.1 0.0 0.00 0.00 0.00 62 1008.4
20260507170038 52 275 17.4 0.0 0.00 0.00 0.00 59 1008.4
20260507165536 52 282 13.9 0.0 0.00 0.00 0.00 66 1008.5
20260507165038 52 261 13.0 0.0 0.00 0.00 0.00 61 1008.5
20260507164542 52 279 14.8 0.0 0.00 0.00 0.00 62 1008.6
20260507164034 51 271 14.8 0.0 0.00 0.00 0.00 66 1008.5
20260507163533 51 279 13.9 0.0 0.00 0.00 0.00 62 1008.6
20260507163033 50 276 13.9 0.0 0.00 0.00 0.00 66 1008.7
20260507162533 50 277 15.6 0.0 0.00 0.00 0.00 63 1008.7
20260507162033 50 275 16.5 0.0 0.00 0.00 0.00 61 1008.8
20260507161532 51 272 15.6 0.0 0.00 0.00 0.00 64 1008.8
20260507161032 51 267 16.5 0.0 0.00 0.00 0.00 63 1009.0
20260507160533 51 252 15.6 0.0 0.00 0.00 0.00 65 1009.0
20260507160032 51 266 12.2 0.0 0.00 0.00 0.00 64 1009.0
20260507155532 50 281 13.0 0.0 0.00 0.00 0.00 64 1009.1
20260507155032 50 286 13.9 0.0 0.00 0.00 0.00 66 1009.1
20260507154532 50 276 11.3 0.0 0.00 0.00 0.00 66 1009.1
20260507154031 50 271 12.2 0.0 0.00 0.00 0.00 63 1009.1
20260507153530 51 297 13.9 0.0 0.00 0.00 0.00 60 1009.1
20260507153033 51 271 16.5 0.0 0.00 0.00 0.00 65 1009.0
20260507152530 51 284 18.2 0.0 0.00 0.00 0.00 63 1009.2
20260507152029 50 270 15.6 0.0 0.00 0.00 0.00 64 1009.3
20260507151528 50 276 12.2 0.0 0.00 0.00 0.00 66 1009.4
20260507151027 50 318 13.0 0.0 0.00 0.00 0.00 66 1009.5
20260507150527 50 328 14.8 0.0 0.00 0.00 0.00 63 1009.4
20260507150028 49 311 15.6 0.0 0.00 0.00 0.00 65 1009.5
20260507145526 49 314 16.5 0.0 0.00 0.00 0.00 63 1009.5
20260507145025 49 333 15.6 0.0 0.00 0.00 0.00 64 1009.5
20260507144530 49 313 15.6 0.0 0.00 0.00 0.00 62 1009.4
20260507144026 49 317 16.5 0.0 0.00 0.00 0.00 61 1009.3
20260507143524 49 302 15.6 0.0 0.00 0.00 0.00 60 1009.4
20260507143031 49 321 15.6 0.0 0.00 0.00 0.00 60 1009.4
20260507142523 49 306 14.8 0.0 0.00 0.00 0.00 63 1009.4
20260507142022 48 305 14.8 0.0 0.00 0.00 0.00 59 1009.4
20260507141522 48 315 13.0 0.0 0.00 0.00 0.00 64 1009.6
20260507141021 48 316 11.3 0.0 0.00 0.00 0.00 60 1009.6
20260507140520 48 326 12.2 0.0 0.00 0.00 0.00 60 1009.5
20260507140021 47 317 12.2 0.0 0.00 0.00 0.00 59 1009.4
20260507135518 47 298 13.0 0.0 0.00 0.00 0.00 62 1009.5
20260507135018 47 310 13.9 0.0 0.00 0.00 0.00 61 1009.5
20260507134519 47 302 13.0 0.0 0.00 0.00 0.00 58 1009.5
20260507134016 46 289 13.0 0.0 0.00 0.00 0.00 59 1009.5
20260507133515 46 319 13.0 0.0 0.00 0.00 0.00 65 1009.6
20260507133015 46 313 13.9 0.0 0.00 0.00 0.00 61 1009.7
20260507132514 46 294 13.9 0.0 0.00 0.00 0.00 63 1009.7
20260507132014 45 295 12.2 0.0 0.00 0.00 0.00 65 1009.7
20260507131516 45 313 10.4 0.0 0.00 0.00 0.00 62 1009.8
20260507131014 45 317 8.7 0.0 0.00 0.00 0.00 66 1009.7
20260507130513 44 319 7.8 0.0 0.00 0.00 0.00 62 1009.7
20260507130013 44 306 7.8 0.0 0.00 0.00 0.00 62 1009.7
20260507125513 44 309 8.7 0.0 0.00 0.00 0.00 61 1009.8
20260507125012 44 314 10.4 0.0 0.00 0.00 0.00 63 1009.8
20260507124512 44 295 11.3 0.0 0.00 0.00 0.00 69 1009.7
20260507124012 44 294 12.2 0.0 0.00 0.00 0.00 66 1009.7
20260507123514 44 312 13.0 0.0 0.00 0.00 0.00 65 1009.7
20260507123013 44 307 11.3 0.0 0.00 0.00 0.00 66 1009.6
20260507122513 43 297 9.6 0.0 0.00 0.00 0.00 68 1009.6
20260507122011 44 317 11.3 0.0 0.00 0.00 0.00 69 1009.6
20260507121509 43 311 12.2 0.0 0.00 0.00 0.00 70 1009.5
20260507121009 43 291 13.9 0.0 0.00 0.00 0.00 67 1009.6
20260507120508 43 310 13.0 0.0 0.00 0.00 0.00 68 1009.4
20260507120009 42 292 11.3 0.0 0.00 0.00 0.00 71 1009.4
20260507115509 42 329 10.4 0.0 0.00 0.00 0.00 69 1009.4
20260507115009 42 320 8.7 0.0 0.00 0.00 0.00 73 1009.4
20260507114509 42 296 8.7 0.0 0.00 0.00 0.00 71 1009.3
20260507114006 42 298 7.8 0.0 0.00 0.00 0.00 75 1009.3
20260507113508 42 305 9.6 0.0 0.00 0.00 0.00 72 1009.3
20260507113012 41 297 10.4 0.0 0.00 0.00 0.00 75 1009.3
20260507112507 41 301 9.6 0.0 0.00 0.00 0.00 73 1009.3
20260507112004 41 283 7.8 0.0 0.00 0.00 0.00 77 1009.3
20260507111504 41 310 7.0 0.0 0.00 0.00 0.00 78 1009.3
20260507111003 41 279 7.8 0.0 0.00 0.00 0.00 80 1009.2
20260507110502 41 308 9.6 0.0 0.00 0.00 0.00 80 1009.1
20260507110003 41 284 10.4 0.0 0.00 0.00 0.00 82 1009.0
20260507105501 41 272 10.4 0.0 0.00 0.00 0.00 82 1009.1
20260507105005 41 284 11.3 0.0 0.00 0.00 0.00 83 1009.0
20260507104601 41 290 13.0 0.0 0.00 0.00 0.00 85 1009.0
20260507104100 41 267 13.9 0.0 0.00 0.00 0.00 85 1008.9
20260507103559 41 272 14.8 0.0 0.00 0.00 0.00 85 1008.7
20260507103058 41 273 14.8 0.0 0.00 0.00 0.00 86 1008.8
20260507102557 41 264 15.6 0.0 0.00 0.00 0.00 86 1008.7
20260507102056 41 273 14.8 0.0 0.00 0.00 0.00 86 1008.6
20260507101603 41 261 13.9 0.0 0.00 0.00 0.00 86 1008.6
20260507101053 41 254 13.0 0.0 0.00 0.00 0.00 87 1008.5
20260507100553 41 252 13.0 0.0 0.00 0.00 0.00 87 1008.6
20260507100056 41 260 13.0 0.0 0.00 0.00 0.00 87 1008.7
20260507095553 41 257 13.9 0.0 0.00 0.00 0.00 87 1008.7
20260507095052 41 269 14.8 0.0 0.00 0.00 0.00 87 1008.6
20260507094552 41 259 13.9 0.0 0.00 0.00 0.00 88 1008.6
20260507094050 42 253 12.2 0.0 0.00 0.00 0.00 88 1008.7
20260507093549 42 267 11.3 0.0 0.00 0.00 0.00 87 1008.5
20260507093050 42 274 11.3 0.0 0.00 0.00 0.00 87 1008.4
20260507092548 42 250 12.2 0.0 0.00 0.00 0.00 86 1008.5
20260507092051 42 259 12.2 0.0 0.00 0.00 0.00 85 1008.5
20260507091548 42 252 13.0 0.0 0.00 0.00 0.00 85 1008.5
20260507091047 42 265 13.0 0.0 0.00 0.00 0.00 84 1008.6
20260507090546 43 275 12.2 0.0 0.00 0.00 0.00 85 1008.5
20260507090048 43 264 12.2 0.0 0.00 0.00 0.00 84 1008.4
20260507085544 43 261 13.0 0.0 0.00 0.00 0.00 84 1008.5
20260507085046 43 258 11.3 0.0 0.00 0.00 0.00 83 1008.5
20260507084553 44 251 11.3 0.0 0.00 0.00 0.00 83 1008.5
20260507084043 44 263 11.3 0.0 0.00 0.00 0.00 82 1008.5
20260507083540 44 266 10.4 0.0 0.00 0.00 0.00 83 1008.2
20260507083040 44 265 10.4 0.0 0.00 0.00 0.00 83 1008.3
20260507082544 44 300 9.6 0.0 0.00 0.00 0.00 80 1008.4
20260507082039 44 341 8.7 0.0 0.00 0.00 0.00 79 1008.3
20260507081543 44 298 7.0 0.0 0.00 0.00 0.00 86 1008.1
20260507081042 44 317 8.7 0.0 0.00 0.00 0.00 87 1008.1
20260507080537 44 282 11.3 0.0 0.00 0.00 0.00 88 1008.2
20260507080037 44 276 13.0 0.0 0.00 0.00 0.00 88 1008.1
20260507075536 44 283 13.0 0.0 0.00 0.00 0.00 88 1008.1
20260507075036 44 294 12.2 0.0 0.00 0.00 0.00 90 1008.1
20260507074536 44 287 13.0 0.0 0.00 0.00 0.00 90 1008.2
20260507074035 45 279 13.0 0.0 0.00 0.00 0.00 92 1008.3
20260507073534 45 258 12.2 0.0 0.00 0.00 0.00 92 1008.2
20260507073034 44 263 11.3 0.0 0.00 0.00 0.00 92 1008.2
20260507072534 45 273 10.4 0.0 0.00 0.00 0.00 93 1008.1
20260507072034 45 275 12.2 0.0 0.00 0.00 0.00 92 1008.1
20260507071534 45 261 14.8 0.0 0.00 0.00 0.00 92 1008.2
20260507071038 45 271 15.6 0.0 0.00 0.00 0.00 93 1008.2
20260507070533 45 266 15.6 0.0 0.00 0.00 0.00 93 1008.2
20260507070033 45 280 12.2 0.0 0.00 0.00 0.00 94 1008.1
20260507065532 45 281 9.6 0.0 0.00 0.00 0.00 95 1008.1
20260507065032 45 261 10.4 0.0 0.00 0.00 0.00 95 1008.0
20260507064531 45 266 12.2 0.0 0.00 0.00 0.00 95 1007.9
20260507064030 44 273 10.4 0.0 0.00 0.00 0.00 95 1007.7
20260507063528 44 258 5.2 0.0 0.00 0.00 0.00 95 1007.6
20260507063028 44 254 1.7 0.0 0.00 0.00 0.00 95 1007.6
20260507062526 44 219 3.5 0.0 0.00 0.00 0.00 95 1007.6
20260507062026 44 219 3.5 0.0 0.00 0.00 0.00 95 1007.6
20260507061526 44 225 0.9 0.0 0.00 0.00 0.00 95 1007.6
20260507061027 44 150 0.9 0.0 0.00 0.00 0.00 95 1007.6
20260507060525 44 154 0.9 0.0 0.00 0.00 0.00 95 1007.6
20260507060025 45 155 1.7 0.0 0.00 0.00 0.00 95 1007.7
20260507055525 45 153 0.9 0.0 0.00 0.00 0.00 95 1007.8
20260507055027 45 184 0.9 0.0 0.00 0.00 0.00 95 1007.9
20260507054531 45 157 0.9 0.0 0.00 0.00 0.00 95 1007.9
20260507054023 45 157 1.7 0.0 0.00 0.00 0.00 95 1007.9
20260507053523 45 157 1.7 0.0 0.00 0.00 0.00 95 1007.8
20260507053023 45 136 1.7 0.0 0.00 0.00 0.00 95 1008.0
20260507052522 45 130 1.7 0.0 0.00 0.00 0.00 95 1007.8
20260507052022 45 129 1.7 0.0 0.00 0.00 0.00 95 1007.7
20260507051522 45 129 2.6 0.0 0.00 0.00 0.00 95 1007.5
20260507051021 45 140 3.5 0.0 0.00 0.00 0.00 95 1007.7
20260507050521 45 140 3.5 0.0 0.00 0.00 0.00 94 1007.8
20260507050025 45 138 2.6 0.0 0.00 0.00 0.00 95 1007.9
20260507045521 45 136 2.6 0.0 0.00 0.00 0.00 95 1008.0
20260507045020 45 146 1.7 0.0 0.00 0.00 0.00 95 1008.0
20260507044521 45 145 1.7 0.0 0.00 0.00 0.00 94 1008.0
20260507044019 45 88 0.9 0.0 0.00 0.00 0.00 94 1007.7
20260507043519 45 62 1.7 0.0 0.00 0.00 0.00 94 1007.6
20260507043023 45 224 4.3 0.0 0.00 0.00 0.00 94 1007.9
20260507042518 45 244 4.3 0.0 0.00 0.00 0.00 94 1008.3
20260507042016 45 225 2.6 0.0 0.00 0.00 0.00 94 1008.4
20260507041516 46 225 0.9 0.0 0.00 0.00 0.00 94 1008.5
20260507041014 46 220 0.9 0.0 0.00 0.00 0.00 94 1008.2
20260507040515 46 218 0.0 0.0 0.00 0.00 0.00 94 1007.9
20260507040011 46 217 0.9 0.0 0.00 0.00 0.00 94 1007.7
20260507035512 46 217 3.5 0.0 0.00 0.00 0.00 94 1007.8
20260507035011 46 231 6.1 0.0 0.00 0.00 0.00 94 1008.0
20260507034510 46 259 7.0 0.0 0.00 0.00 0.00 94 1007.9
20260507034010 46 240 7.0 0.0 0.00 0.00 0.00 94 1008.0
20260507033512 46 220 7.0 0.0 0.00 0.00 0.00 94 1007.9
20260507033009 46 246 7.8 0.0 0.00 0.00 0.00 93 1007.9
20260507032509 46 263 7.0 0.0 0.00 0.00 0.00 93 1007.9
20260507032008 47 275 6.1 0.0 0.00 0.00 0.00 93 1007.9
20260507031510 47 278 7.0 0.0 0.00 0.00 0.00 93 1007.8
20260507031007 47 279 8.7 0.0 0.00 0.00 0.00 94 1007.9
20260507030508 47 270 9.6 0.0 0.00 0.00 0.00 93 1007.9
20260507030007 47 263 9.6 0.0 0.00 0.00 0.00 93 1007.9
20260507025507 47 246 10.4 0.0 0.00 0.00 0.00 94 1008.0
20260507025005 47 252 9.6 0.0 0.00 0.00 0.00 94 1008.0
20260507024509 47 250 8.7 0.0 0.00 0.00 0.00 94 1007.9
20260507024006 48 269 9.6 0.0 0.00 0.00 0.00 94 1007.9
20260507023503 48 259 9.6 0.0 0.00 0.00 0.00 94 1008.1
20260507023003 48 246 7.8 0.0 0.00 0.00 0.00 94 1008.3
20260507022503 48 250 7.8 0.0 0.00 0.00 0.00 94 1008.2
20260507022003 48 258 7.8 0.0 0.00 0.00 0.00 94 1008.1
20260507021502 48 250 7.8 0.0 0.00 0.00 0.00 94 1008.0
20260507021002 48 261 8.7 0.0 0.00 0.00 0.00 94 1008.1
20260507020502 48 238 9.6 0.0 0.00 0.00 0.00 94 1008.2
20260507020002 48 230 10.4 0.0 0.00 0.00 0.00 94 1008.1
20260507015503 48 249 11.3 0.0 0.00 0.00 0.00 93 1008.0
20260507015001 48 258 10.4 0.0 0.00 0.00 0.00 93 1008.2
20260507014605 48 247 7.0 0.0 0.00 0.00 0.00 93 1008.2
20260507014059 48 234 4.3 0.0 0.00 0.00 0.00 93 1008.0
20260507013600 48 219 2.6 0.0 0.00 0.00 0.00 92 1008.0
20260507013059 49 223 2.6 0.0 0.00 0.00 0.00 92 1008.0
20260507012556 49 222 5.2 0.0 0.00 0.00 0.00 92 1007.8
20260507012056 49 222 7.0 0.0 0.00 0.00 0.00 92 1007.7
20260507011555 49 238 5.2 0.0 0.00 0.00 0.00 92 1007.9
20260507011056 49 223 5.2 0.0 0.00 0.00 0.00 91 1007.9
20260507010554 50 225 4.3 0.0 0.00 0.00 0.00 91 1007.7
20260507005553 50 224 4.3 0.0 0.00 0.00 0.00 90 1007.5
20260507005053 50 221 3.5 0.0 0.00 0.00 0.00 90 1007.5
20260507004602 50 351 3.5 0.0 0.00 0.00 0.00 88 1007.5
20260507004052 50 355 4.3 0.0 0.00 0.00 0.00 88 1007.5
20260507003555 50 355 5.2 0.0 0.00 0.00 0.00 89 1007.5
20260507003053 50 355 5.2 0.0 0.00 0.00 0.00 89 1007.4
20260507002551 50 350 5.2 0.0 0.00 0.00 0.00 89 1007.3
20260507002051 50 344 4.3 0.0 0.00 0.00 0.00 90 1007.3
20260507001552 50 351 3.5 0.0 0.00 0.00 0.00 91 1007.1
20260507001051 49 355 3.5 0.0 0.00 0.00 0.00 91 1006.8
20260507000551 50 315 4.3 0.0 0.00 0.00 0.00 91 1006.8
20260507000052 50 304 4.3 0.0 0.00 0.00 0.00 91 1006.8
20260506235555 50 310 5.2 0.0 0.00 0.00 0.00 89 1006.7
20260506235050 50 332 7.0 0.0 0.00 0.00 0.00 88 1006.5
20260506234552 49 348 6.1 0.0 0.00 0.00 0.00 91 1006.5
20260506234049 49 340 3.5 0.0 0.00 0.00 0.00 94 1006.4
20260506233550 49 348 2.6 0.0 0.00 0.00 0.00 95 1006.4
20260506233102 49 78 2.6 0.0 0.00 0.00 0.00 95 1006.0
20260506232547 49 75 2.6 0.0 0.00 0.00 0.00 95 1005.9
20260506232048 49 68 2.6 0.0 0.00 0.00 0.00 95 1005.8
20260506231554 50 83 3.5 0.0 0.00 0.00 0.00 95 1005.7
20260506231047 50 72 5.2 0.0 0.00 0.00 0.00 95 1005.7
20260506230547 50 63 10.4 0.0 0.00 0.00 0.00 95 1005.6
20260506230049 50 263 14.8 0.0 0.00 0.00 0.00 96 1005.5
20260506225545 50 256 13.0 0.0 0.00 0.00 0.00 95 1005.4
20260506225044 50 232 10.4 0.0 0.00 0.00 0.00 95 1005.3
20260506224544 50 221 8.7 0.0 0.00 0.00 0.00 95 1005.2
20260506224045 50 217 8.7 0.0 0.00 0.00 0.00 95 1005.2
20260506223541 50 220 7.8 0.0 0.00 0.00 0.00 95 1005.1
20260506223044 50 225 4.3 0.0 0.00 0.00 0.00 94 1005.1
20260506222538 50 219 1.7 0.0 0.00 0.00 0.00 94 1005.2
20260506222037 51 200 0.9 0.0 0.00 0.00 0.00 95 1005.0